Location: Klein M�hlingen
(51.9472°N, 11.7453°E)
Time: 18:23:26
(UTC+00:00)

STARLINK-1230 - Pass Details

Date: 09 April 2020
Orbit: 548 x 550 km, 53.0° (Epoch: 02 June)

Event Time Altitude Azimuth Distance (km) Brightness Sun altitude
Rises 19:09:48 0° 286° (WNW) 2,674 9.0 -10.7°
Reaches altitude 10° 19:12:02 10° 284° (WNW) 1,782 7.6 -11.0°
Maximum altitude 19:16:03 70° 201° (SSW) 569 3.6 -11.5°
Enters shadow 19:18:54 18° 121° (ESE) 1,328 4.9 -11.9°
